AirNav   Everest Fuels
 
 400 users online  

27LL Sullivan Field Airport
Valmeyer, Illinois, USA

GOING TO VALMEYER?


FAA INFORMATION EFFECTIVE 02 DECEMBER 2021

Location

FAA Identifier: 27LL
Lat/Long: 38-22-24.2100N 090-19-14.3700W
38-22.403500N 090-19.239500W
38.3733917,-90.3206583
(estimated)
Elevation: 400 ft. / 122 m (estimated)
Variation: 02E (1985)
From city: 4 miles N of VALMEYER, IL
Time zone: UTC -6 (UTC -5 during Daylight Saving Time)
Zip code: 62295

Airport Operations

Airport use: Private use. Permission required prior to landing
Activation date: 11/1977
Control tower: no
ARTCC: KANSAS CITY CENTER
FSS: COLUMBIA FLIGHT SERVICE STATION
Attendance: DAYLIGHT HOURS
Wind indicator: yes
Segmented circle: no

Airport Communications

WX ASOS at CPS (14 nm NE): PHONE 618-332-0001

Nearby radio navigation aids

VOR radial/distance  VOR name  Freq  Var
TOYr217/28.9TROY VORTAC116.0004E
STLr164/30.2ST LOUIS VORTAC117.4001E
FTZr117/36.1FORISTELL VORTAC110.8005E

 
NDB name  Hdg/Dist  Freq  Var  ID
CIVIC MEMORIAL203/33.526301WCVM -.-. ...- --

Airport Services

Runway Information

Runway 9/27

Dimensions: 1800 x 80 ft. / 549 x 24 m
Surface: turf
RUNWAY 9  RUNWAY 27
Traffic pattern: leftleft

Airport Ownership and Management from official FAA records

Ownership: Privately-owned
Owner: SULLIVAN FIELD INC.
3223 CEDAR RIDGE LN
WATERLOO, IL 62298
Phone 618-939-4142
Manager: MIKE MERKAN
8000 B ROAD
VALMEYER, IL 62295
Phone (618) 444-3420
618-444-3420

Airport Operational Statistics

Aircraft based on the field: 22
Single engine airplanes: 8
Ultralights: 14
    

Additional Remarks

FOR CD CTC ST LOUIS APCH AT 314-890-1018.

Instrument Procedures

There are no published instrument procedures at 27LL.

Some nearby airports with instrument procedures:

KFES - Festus Memorial Airport (11 nm S)
KCPS - St Louis Downtown Airport (14 nm NE)
KSTL - St Louis Lambert International Airport (23 nm N)
1H0 - Creve Coeur Airport (23 nm N)
KSUS - Spirit of St Louis Airport (23 nm NW)
 
Loc | Ops | Rwys | IFR | FBO | Links
Com | Nav | Svcs | Stats | Notes
Area around 27LL (Sullivan Field Airport)
 
Road maps at: MapQuest Bing Google
 
Aerial photo
WARNING: Photo may not be current or correct
Aerial photo of 27LL (Sullivan Field Airport)
Do you have a better or more recent aerial photo of Sullivan Field Airport that you would like to share? If so, please send us your photo.

 
Sectional chart

 
Airport distance calculator
Flying to Sullivan Field Airport? Find the distance to fly.

From to 27LL

Sunrise and sunset
Times for 08-Dec-2021
 Local
(UTC-6)
 Zulu
(UTC)
Morning civil twilight06:3712:37
Sunrise07:0713:07
Sunset16:4022:40
Evening civil twilight17:0923:09

Current date and time
Zulu (UTC)  08-Dec-2021 08:15:05
Local (UTC-6)  08-Dec-2021 02:15:05
 
METAR
KCPS 
14nm NE 
080753Z AUTO 16003KT 10SM CLR M04/M06 A3004 RMK AO2 SLP177 T10441056
KSUS 
23nm NW 
080754Z AUTO 00000KT 10SM CLR M06/M08 A3003 RMK AO2 SLP180 T10561078
KSTL 
23nm N 
080751Z 00000KT 10SM FEW250 M02/M06 A3003 RMK AO2 SLP182 T10171061
KBLV 
25nm NE 
080756Z AUTO 18003KT 10SM CLR M05/M06 A3004 RMK AO2 SLP181 T10461063 $
TAF
KCPS 
14nm NE 
080520Z 0806/0906 VRB03KT P6SM FEW200 FM081100 25004KT P6SM BKN250 FM082300 12005KT P6SM SKC
NOTAMs
Click for the latest NOTAMs
NOTAMs are issued by the DoD/FAA and will open in a separate window not controlled by AirNav.

 

 
 

Would you like to see your business listed on this page?

 If your business provides an interesting product or service to pilots, flight crews, aircraft, or users of the Sullivan Field Airport, you should consider listing it here.  To start the listing process, click on the button below
 
Add a business
 

Other Pages about Sullivan Field Airport

Update a link
 
Copyright © AirNav, LLC. All rights reserved. Privacy Policy  Contact